Portada
METAR-TAF:

METAR-TAF

Aeropuertos :

Aeropuerto de Saint-Étienne - Bouthéon

Saint-Etienne, Francia

latitud: 45-32N, longitud: 004-18E, altitud: 404 m

Observación

El informe se hizo hace 30 minutos, a las 17:00 UTC
Viento 10 kt del norte, variando entre oeste-noroeste y norte-noreste
Temperatura 20°C
Humedad 53%
Presión 1025 hPa
Visibilidad 10 km o más
Cielo cubierto a una altura de 4700 ft

METAR: LFMH 261700Z AUTO 35010KT 300V020 9999 OVC047 20/10 Q1025

Hora: 19:30 (17:30 UTC)


TAF: falta

Observaciones y pronósticos meteorológicos de más de 4000 aeropuertos (mensajes METAR y TAF).

Los puntos amarillos y rojos representan las estaciones disponibles.

Ponga el ratón en el punto deseado para ver el nombre de la estación.

Haga clic para ver las observaciones y los pronósticos meteorológicos.

Para cambiar el mapa : haga clic en los botones verdes con una cruz de color negro para hacer un zoom, en el botón verde con un guión para alejar o en las flechas verdes para mapas adyacentes.


METAR-TAF: